Location: Serpentine
(32.3617°S, 115.9768°E)
Time: 08:12:41
(UTC+08:00)

X-37B - Pass Details

Date: 14 December 2021
Orbit: 334 x 337 km, 45.0° (Epoch: 11 January)

Event Time Altitude Azimuth Distance (km) Brightness Sun altitude
Exits shadow 02:20:04 13° 116° (ESE) 1,139 3.6 -26.4°
Drops below altitude 10° 02:20:27 10° 117° (ESE) 1,293 4.0 -26.4°
Sets 02:22:29 0° 121° (ESE) 2,139 5.4 -26.1°
